User: anonymous   Login
Location: Mentone
(34.5413°N, 85.5351°W)
Time: 09:51:12
(UTC-06:00)
Language:

S-56A Canister/Altair - Orbit

View from above orbital plane
View from above orbital plane
View from above satellite
View from above satellite

Ground track
Ground track

The orbit data is extracted from the following two-line orbital elements,

1    82U 61004B   17054.84950923 +.00000106 +00000-0 +13557-3 0  9999
2    82 038.8563 356.5014 1168086 006.7008 354.7900 12.25814554659353
Epoch (UTC): 23 February 2017 20:23:17
Eccentricity: 0.1168086
inclination: 38.8563°
perigee height: 639 km
apogee height: 2495 km
right ascension of ascending node: 356.5014°
argument of perigee: 6.7008°
revolutions per day: 12.25814554
mean anomaly at epoch: 354.7900°
orbit number at epoch: 65935

The dashed part of the orbit path shows where the satellite is in the earth's shadow,  

DLR